Wind_Speed
16 17 18 18 17 18 18 18 20 21 22 24 25 25 24 22 21 20 19 18 16 14 13 12 11 11 10 9 8 8 7 6 6 6 5 5 4 4 4 3 3 2 3
16 17 18 17 16 17 17 18 19 22 22 23 25 26 25 24 23 21 20 19 17 15 14 13 12 12 11 10 9 9 8 7 6 6 6 5 4 4 3 3 3 3 4
16 17 16 15 14 15 16 17 18 19 22 24 25 27 26 25 23 22 22 20 18 17 16 14 13 13 12 11 10 9 9 8 7 7 6 5 5 4 4 4 4 4 4
14 13 13 12 12 12 14 15 17 19 21 22 25 26 26 24 23 23 22 21 19 18 17 15 15 14 13 12 12 11 9 9 8 7 7 6 5 5 5 4 5 5 6
11 11 10 10 11 11 11 13 16 18 19 21 23 25 25 25 24 23 22 21 19 18 17 16 15 14 13 13 12 11 10 10 9 8 7 7 6 6 6 5 6 6 7
11 10 8 8 9 9 10 12 14 16 18 21 24 25 24 24 24 23 22 20 20 19 18 16 15 14 14 13 13 12 11 10 10 9 8 8 7 7 7 7 7 7 8
10 9 8 8 7 8 9 11 14 15 18 20 23 24 24 23 23 22 21 20 20 20 19 17 16 15 15 14 14 13 11 10 10 10 9 9 8 8 9 9 9 9 9
9 8 7 7 7 7 8 11 12 15 17 19 22 23 22 22 21 21 21 20 19 19 19 17 17 16 15 15 14 14 12 11 11 10 10 10 10 10 11 11 11 11 11
7 7 7 6 5 6 7 8 9 13 15 18 21 22 21 21 20 20 19 20 19 19 18 17 17 17 16 16 15 14 13 13 12 12 11 11 12 12 12 13 14 14 14
7 7 6 5 4 4 6 7 8 11 13 15 18 20 20 21 20 19 18 19 19 19 18 17 17 17 17 16 16 15 15 14 14 14 14 14 14 14 15 15 16 16 17
8 7 6 6 5 3 4 6 7 9 12 13 15 17 18 19 20 19 19 19 18 18 17 17 17 18 18 17 17 17 17 16 16 16 16 17 17 17 18 18 19 19 20
7 7 6 6 5 3 4 6 8 9 11 12 14 15 17 18 19 19 18 19 19 18 18 17 17 18 18 19 18 18 18 18 18 18 19 19 20 20 21 21 22 23 24
8 8 6 6 5 4 4 6 7 9 10 11 12 14 15 17 17 18 18 18 19 18 18 19 19 19 20 21 21 20 20 20 20 21 22 22 23 24 24 24 25 26 27
9 9 8 7 6 6 6 6 7 8 9 10 11 12 14 15 16 17 18 18 18 19 19 20 20 21 21 21 22 23 23 23 24 24 25 25 26 26 26 27 27 28 29
10 9 9 9 8 8 8 8 9 9 10 11 12 13 14 16 16 17 18 18 19 19 20 21 21 21 22 23 24 25 26 27 27 28 28 28 28 29 29 30 31 31 32
11 10 11 11 11 11 10 10 10 10 11 12 13 14 15 17 18 18 18 18 19 20 20 21 22 22 23 24 25 26 27 29 29 30 31 31 31 32 33 34 34 34 35
14 13 12 12 13 13 13 12 12 12 13 13 15 16 17 17 18 19 19 19 20 21 22 22 23 23 24 25 26 27 28 29 31 31 32 33 34 35 36 37 37 38 38
17 16 15 14 14 14 14 14 14 14 15 15 16 17 18 19 20 20 21 22 23 23 24 25 26 26 26 28 29 30 31 32 33 34 34 35 36 36 38 39 39 40 40
19 19 18 17 17 16 16 16 16 16 16 17 18 19 19 21 22 23 23 24 25 26 27 27 28 28 29 31 32 33 33 34 35 36 36 37 37 39 40 41 41 41 42
22 21 21 20 19 18 18 18 18 18 18 19 20 21 22 23 24 25 26 26 27 28 29 30 31 32 33 34 35 35 36 36 37 39 39 40 41 42 43 43 44 44 45
23 23 23 22 21 20 20 19 20 20 20 21 22 23 23 25 27 27 27 28 29 30 31 32 33 34 35 36 37 38 39 40 40 41 42 43 43 44 45 46 47 47 47
25 24 24 24 23 23 23 22 22 22 23 23 24 24 25 26 27 29 29 30 31 32 33 34 35 36 38 39 40 41 42 43 43 43 44 45 45 46 47 48 48 48 49
25 25 26 25 24 24 25 24 24 25 25 26 26 26 27 28 28 30 31 32 33 34 34 35 36 38 40 41 42 43 44 44 44 45 46 47 47 48 49 49 49 50 50
25 25 25 25 25 25 25 25 26 27 26 26 27 28 29 29 30 30 31 33 34 35 37 38 38 38 40 41 43 45 45 47 48 48 48 48 50 50 50 50 50 51 52
24 25 25 25 25 25 25 26 26 27 27 28 29 29 29 30 31 32 32 32 32 34 35 37 38 39 40 41 43 44 45 46 47 48 48 49 49 50 50 50 52 53 53
25 25 25 26 26 26 27 28 28 29 29 29 29 29 29 29 30 31 31 31 33 34 35 36 38 39 40 41 42 42 43 44 46 47 47 48 49 49 50 51 52 53 54
Wind_Direction
287 282 278 274 267 261 253 249 236 232 227 223 219 216 215 215 216 217 217 219 219 217 216 214 212 212 211 210 210 215 216 217 218 218 217 216 219 229 238 242 249 262 267
288 283 277 274 267 256 247 244 234 231 227 224 220 216 214 216 217 218 218 218 217 217 216 217 216 215 214 213 214 215 213 212 215 217 212 208 218 227 231 241 255 268 276
289 285 280 274 271 261 247 241 231 227 225 224 221 216 215 215 218 219 219 218 218 218 219 220 220 217 216 216 214 213 213 212 211 213 215 218 226 235 242 248 258 268 277
297 290 280 273 271 265 250 242 228 226 223 223 219 215 214 215 217 217 218 217 218 217 218 220 221 219 216 215 215 213 214 213 214 216 218 222 229 240 250 254 262 271 277
308 297 282 276 271 266 251 235 227 225 222 217 215 213 212 214 215 216 216 217 217 217 217 218 218 217 215 216 213 211 209 211 212 215 219 224 232 241 250 261 270 277 281
311 304 290 281 272 263 247 228 224 221 220 215 213 209 210 213 214 215 215 216 217 217 217 216 217 217 214 211 207 208 211 212 216 221 225 231 238 246 255 266 275 280 283
312 308 294 285 277 258 245 235 230 223 218 214 210 207 209 211 212 214 216 217 219 218 217 216 216 215 212 210 209 210 211 213 219 225 231 237 244 252 260 267 273 279 281
310 313 303 285 275 256 244 238 232 224 216 210 205 203 206 207 210 212 213 214 214 213 213 213 215 215 212 213 213 214 216 220 225 232 240 245 251 260 266 269 272 276 279
321 320 318 294 274 256 241 231 228 218 210 204 202 201 202 204 207 208 210 211 210 211 212 214 216 215 214 216 218 219 224 230 234 239 248 256 259 263 268 271 273 275 278
320 323 323 311 287 262 236 218 211 203 201 199 199 200 203 205 206 208 210 211 212 212 213 215 218 217 217 219 221 223 228 235 241 248 255 261 266 268 271 274 276 278 280
305 315 316 317 314 272 226 212 203 201 198 198 199 202 206 207 207 209 211 212 212 215 216 217 219 221 224 226 228 231 237 242 248 254 261 266 270 272 273 276 277 279 280
291 297 301 296 305 293 236 214 208 206 205 204 204 206 208 208 209 210 213 214 217 221 221 223 225 226 229 232 234 237 241 247 254 259 264 269 271 274 275 275 277 278 280
276 278 279 281 274 265 246 222 217 213 211 210 210 211 211 210 211 213 216 220 222 224 225 227 228 231 234 237 238 242 246 252 256 261 265 270 272 275 275 276 277 278 279
267 267 266 262 259 258 248 237 227 219 216 214 214 214 213 213 215 218 221 224 228 230 231 232 234 237 238 241 244 248 252 257 260 263 267 270 273 276 277 278 280 281 282
260 261 260 259 255 251 246 242 235 227 221 220 219 220 220 220 221 223 226 229 232 234 237 239 242 245 245 248 250 253 257 260 263 266 268 271 273 275 277 279 281 282 284
256 257 256 254 251 247 244 242 240 234 232 230 229 230 230 229 229 231 231 232 235 238 240 244 246 250 252 253 255 257 260 263 265 268 270 273 275 276 278 279 280 282 283
254 255 256 253 246 244 244 243 243 241 240 238 236 236 236 236 237 238 239 241 242 243 245 248 252 255 257 258 260 262 264 267 268 269 271 273 275 277 279 280 280 281 282
254 252 254 254 249 246 245 244 244 247 247 247 245 243 240 240 241 242 244 246 248 249 250 253 256 257 260 262 265 266 267 270 271 271 272 274 276 277 279 280 280 281 282
248 248 250 252 252 248 247 247 247 249 249 250 250 249 247 245 245 247 248 249 252 253 254 256 258 260 263 265 267 269 271 272 273 274 275 276 277 277 279 279 279 280 281
245 245 246 249 250 249 249 250 250 252 252 252 252 252 251 250 250 251 253 254 255 256 257 260 262 264 266 267 269 270 271 272 273 274 276 276 277 277 278 279 280 281 281
245 245 245 246 247 248 249 251 252 254 255 253 253 254 255 254 253 255 256 257 259 261 262 264 265 266 268 269 270 271 272 273 273 275 276 277 277 278 279 281 281 282 282
244 244 245 245 247 249 251 253 254 254 255 255 256 257 258 258 257 257 258 259 261 263 266 267 268 269 270 271 272 273 274 274 275 276 277 278 278 278 280 281 282 281 281
245 246 245 244 247 248 250 253 254 254 255 256 257 257 259 261 263 262 262 263 265 267 268 270 272 271 271 272 273 274 275 275 276 277 277 279 279 279 281 281 281 282 282
244 244 244 245 246 247 250 252 253 253 255 257 259 260 260 261 263 265 265 266 267 268 269 272 274 276 275 275 276 277 277 277 278 278 278 279 280 281 281 281 282 283 283
243 243 244 245 246 249 251 252 254 255 257 258 259 260 262 266 267 267 268 268 270 271 273 275 275 277 278 278 278 278 277 278 279 280 280 281 281 282 282 282 283 284 285
243 243 244 247 248 248 249 251 254 256 258 257 259 261 264 267 266 267 269 271 274 276 278 279 279 280 280 280 280 281 280 281 282 283 283 282 283 283 284 285 284 284 284
Height
5847 5845 5843 5842 5842 5842 5841 5843 5844 5846 5849 5852 5856 5860 5863 5866 5869 5872 5874 5876 5879 5881 5882 5884 5885 5886 5888 5889 5890 5891 5892 5893 5894 5895 5895 5895 5895 5895 5896 5896 5896 5896 5896
5843 5840 5839 5837 5837 5837 5837 5838 5839 5842 5845 5849 5852 5856 5859 5862 5865 5868 5871 5873 5876 5878 5880 5882 5883 5885 5886 5888 5889 5890 5891 5892 5893 5894 5894 5895 5896 5895 5895 5895 5896 5896 5895
5838 5836 5834 5833 5832 5832 5832 5833 5835 5837 5841 5844 5848 5851 5855 5858 5862 5865 5868 5871 5873 5876 5878 5880 5881 5883 5884 5886 5887 5889 5890 5891 5892 5892 5894 5894 5895 5895 5895 5895 5895 5895 5895
5834 5832 5830 5829 5829 5828 5828 5829 5831 5833 5836 5839 5843 5847 5852 5855 5859 5862 5865 5868 5870 5873 5875 5877 5879 5881 5882 5884 5885 5887 5888 5890 5890 5891 5892 5893 5893 5894 5894 5894 5894 5894 5894
5831 5829 5827 5826 5826 5825 5825 5826 5827 5830 5833 5836 5839 5844 5848 5852 5855 5858 5861 5865 5868 5870 5872 5874 5876 5878 5880 5882 5883 5885 5886 5888 5889 5890 5891 5892 5892 5892 5893 5893 5893 5893 5892
5829 5827 5825 5824 5823 5822 5822 5823 5825 5827 5829 5832 5836 5840 5844 5848 5852 5855 5859 5862 5865 5867 5870 5872 5874 5876 5878 5880 5882 5883 5885 5886 5887 5889 5890 5890 5891 5891 5891 5891 5891 5891 5891
5827 5825 5823 5822 5821 5821 5821 5822 5823 5824 5826 5829 5832 5837 5841 5845 5849 5853 5856 5859 5862 5865 5867 5869 5872 5874 5876 5878 5880 5882 5883 5885 5886 5887 5888 5888 5889 5889 5889 5889 5889 5889 5889
5825 5823 5821 5820 5820 5819 5820 5820 5821 5822 5823 5826 5830 5834 5839 5843 5846 5850 5853 5856 5859 5862 5864 5867 5869 5871 5874 5876 5878 5880 5881 5883 5884 5885 5886 5886 5886 5886 5886 5887 5886 5886 5886
5823 5822 5820 5819 5819 5818 5819 5819 5819 5820 5822 5825 5829 5833 5837 5841 5844 5848 5850 5854 5857 5860 5862 5864 5867 5869 5872 5874 5876 5877 5879 5881 5882 5883 5883 5884 5884 5883 5883 5883 5883 5883 5883
5823 5821 5820 5819 5818 5818 5818 5819 5819 5820 5822 5825 5828 5832 5835 5839 5843 5846 5849 5852 5855 5858 5860 5862 5865 5867 5869 5871 5873 5875 5877 5878 5879 5880 5880 5881 5881 5880 5880 5880 5880 5879 5879
5822 5821 5820 5819 5818 5818 5818 5819 5820 5822 5823 5826 5828 5831 5835 5838 5841 5845 5847 5850 5853 5856 5858 5860 5863 5865 5867 5869 5871 5872 5873 5875 5875 5876 5877 5877 5877 5877 5876 5876 5875 5875 5874
5821 5820 5820 5819 5819 5819 5819 5820 5821 5822 5824 5826 5828 5831 5834 5836 5839 5842 5845 5848 5851 5853 5856 5858 5860 5862 5864 5866 5867 5869 5870 5871 5871 5872 5872 5872 5872 5872 5871 5871 5870 5870 5869
5819 5819 5819 5818 5819 5819 5819 5820 5821 5822 5824 5826 5828 5830 5832 5835 5838 5840 5843 5846 5848 5851 5853 5855 5857 5859 5860 5862 5863 5864 5866 5866 5867 5867 5867 5867 5867 5866 5866 5865 5864 5863 5863
5817 5817 5817 5817 5818 5818 5819 5820 5821 5822 5824 5825 5827 5829 5831 5833 5836 5838 5841 5844 5846 5848 5850 5852 5853 5854 5856 5857 5859 5860 5860 5861 5861 5862 5862 5861 5861 5860 5859 5859 5858 5856 5855
5814 5814 5815 5815 5816 5817 5818 5819 5820 5821 5823 5824 5826 5828 5830 5832 5834 5836 5838 5840 5842 5844 5846 5848 5849 5850 5851 5852 5853 5854 5855 5855 5856 5856 5855 5855 5854 5853 5853 5852 5851 5849 5848
5811 5812 5812 5813 5814 5815 5816 5817 5818 5820 5821 5822 5823 5825 5827 5829 5831 5833 5835 5837 5839 5841 5842 5843 5844 5845 5846 5847 5847 5848 5849 5849 5849 5849 5848 5848 5847 5846 5844 5843 5842 5841 5839
5808 5808 5809 5810 5811 5812 5813 5814 5816 5817 5819 5820 5821 5823 5824 5826 5828 5830 5831 5833 5835 5836 5837 5838 5839 5839 5840 5841 5841 5841 5842 5842 5842 5841 5840 5839 5838 5837 5836 5834 5833 5831 5829
5803 5804 5805 5806 5807 5809 5810 5811 5813 5814 5815 5817 5818 5819 5821 5822 5824 5826 5827 5829 5830 5831 5832 5832 5833 5834 5834 5835 5834 5834 5834 5834 5833 5832 5831 5830 5829 5827 5826 5824 5823 5821 5819
5798 5799 5800 5801 5803 5804 5806 5807 5809 5810 5811 5813 5814 5815 5816 5818 5819 5821 5822 5823 5824 5825 5825 5826 5826 5827 5827 5827 5827 5826 5826 5825 5824 5823 5822 5821 5819 5818 5815 5814 5812 5810 5808
5792 5794 5795 5796 5798 5799 5801 5803 5804 5805 5806 5807 5809 5810 5811 5813 5814 5815 5816 5817 5818 5818 5819 5819 5819 5819 5819 5819 5818 5817 5816 5816 5815 5813 5812 5810 5809 5807 5804 5802 5801 5799 5797
5786 5788 5790 5791 5793 5794 5796 5798 5799 5800 5801 5802 5803 5804 5805 5806 5807 5808 5809 5810 5810 5811 5811 5811 5811 5811 5810 5809 5809 5807 5807 5805 5804 5802 5800 5799 5797 5795 5792 5790 5789 5786 5783
5780 5782 5784 5785 5787 5789 5790 5792 5793 5794 5795 5796 5797 5798 5799 5799 5800 5801 5802 5802 5803 5803 5803 5802 5802 5801 5800 5799 5798 5797 5796 5794 5792 5791 5789 5786 5784 5782 5780 5777 5775 5773 5770
5773 5775 5777 5779 5781 5782 5784 5785 5786 5787 5788 5789 5790 5791 5792 5792 5793 5793 5794 5794 5794 5794 5793 5793 5792 5790 5789 5788 5787 5785 5784 5782 5780 5778 5776 5774 5771 5769 5767 5764 5761 5758 5755
5767 5769 5771 5773 5774 5776 5777 5778 5779 5780 5781 5782 5783 5783 5783 5784 5784 5785 5785 5785 5785 5784 5783 5782 5781 5779 5777 5776 5775 5773 5771 5769 5767 5765 5762 5760 5757 5755 5753 5750 5747 5743 5740
5760 5762 5764 5766 5768 5769 5770 5771 5772 5773 5774 5775 5775 5775 5775 5776 5776 5776 5776 5775 5775 5774 5773 5772 5770 5769 5767 5765 5763 5760 5758 5756 5754 5751 5749 5746 5743 5740 5737 5734 5731 5728 5725
5754 5756 5757 5759 5761 5762 5763 5764 5766 5766 5767 5767 5767 5767 5768 5767 5767 5767 5766 5765 5765 5764 5762 5761 5759 5757 5755 5753 5751 5748 5746 5743 5740 5738 5735 5732 5729 5726 5722 5719 5716 5713 5709